sat.trackr.live / text

‹ back to catalog

STARLINK-35187

NORAD 65521 · 2025-200B

PAYLOAD ACTIVE UNKNOWN

§ Identity

Operator
Country
US
Launch date
2025-09-06
Launch site
AFWTR
Launch vehicle
Mass (kg)
RCS (m²)

Purposes: comms

External: N2YO · Heavens-Above · Gunter

§ Orbital elements

Epoch: 2026-05-25T02:57:46.863648Z

Period
95.64 min
Inclination
97.4496°
Eccentricity
0.0002054
Mean motion
15.05656915 rev/d
Perigee alt
548.1 km
Apogee alt
550.9 km
Semi-major
6,927.6 km
B*
1.9410e-4
RAAN
214.7976°
Arg perigee
115.6972°
Mean anomaly
244.4467°
Rev number
4,063

§ Raw data

STARLINK-351871 65521U 25200B   26145.12345907  .00002744  00000+0  19410-3 0  99912 65521  97.4496 214.7976 0002054 115.6972 244.4467 15.05656915 40635

JSON: /api/v1/satellites/65521 · /tle

For live sub-satellite position, see the globe view (requires WebGL).

§ Visibility from observer

Set your observer location to see the next 7 days of passes ≥ 10°. The values pass through the URL so the page stays shareable.

No JS? Fill the form by hand. The geolocation button needs JavaScript.